Theta_e
312 314 316 318 319 318 322 327 329 333 339 340 339 339 335 327 326 326 328 330 336 333
310 312 314 316 319 319 320 324 325 327 334 338 339 337 334 330 326 326 326 328 336 335
307 310 312 315 315 316 320 322 323 323 325 331 338 335 332 329 327 326 329 335 337 338
305 307 310 312 314 319 320 318 319 320 322 326 332 334 329 325 327 329 334 338 339 338
304 304 305 309 312 317 316 317 318 322 321 325 329 332 333 333 335 334 333 320 321 320
303 302 303 305 309 313 315 318 315 317 318 320 324 330 325 326 325 325 324 322 322 321
302 303 304 305 306 309 314 315 315 317 318 321 324 329 327 323 323 323 321 322 320 324
300 302 303 303 305 308 309 315 316 317 320 322 323 326 323 322 322 321 322 321 321 323
300 301 302 302 303 305 306 311 314 316 319 319 320 312 312 320 323 324 323 320 320 322
298 298 299 300 301 303 305 307 310 312 314 320 317 307 306 310 320 319 319 318 319 322
296 297 300 299 299 300 305 309 308 309 312 318 319 307 305 306 325 324 324 323 324 325
296 296 298 299 299 299 302 307 308 311 311 315 315 307 304 305 318 324 325 326 325 322
296 296 296 298 300 298 302 309 311 311 313 312 313 305 304 306 315 319 323 321 319 309
297 296 297 297 298 299 302 306 308 309 311 313 314 313 300 303 316 321 320 317 316 313
Wind_Speed
7 5 5 7 6 5 5 6 7 7 10 14 14 11 10 6 7 7 11 20 17 13
7 7 7 8 7 5 6 5 7 7 10 14 14 16 17 11 12 17 19 18 23 12
8 8 8 7 8 8 7 6 6 8 9 12 15 12 15 13 16 17 14 15 21 17
7 9 9 7 7 8 7 7 7 7 7 12 15 13 15 15 16 19 19 19 19 16
7 7 6 7 9 8 8 6 7 6 8 11 14 15 15 19 17 21 18 7 3 3
11 8 8 7 7 8 10 7 8 6 8 12 13 14 10 12 9 8 9 8 9 6
16 13 12 10 9 7 9 10 10 8 10 12 15 13 14 13 13 13 11 12 11 10
17 18 17 14 12 10 9 11 10 11 12 12 11 11 14 15 17 18 17 14 13 13
18 17 16 16 16 14 11 11 10 11 10 8 7 13 16 14 14 16 16 15 13 12
17 18 17 16 13 13 10 9 10 9 6 8 7 12 15 11 8 10 11 12 10 9
17 18 15 14 13 13 11 9 5 9 7 5 6 13 14 14 9 6 7 6 11 11
15 16 15 14 13 7 6 8 9 6 7 7 5 14 12 2 5 9 6 9 9 11
14 15 15 13 10 7 9 9 4 7 8 9 5 12 17 12 5 13 9 9 10 14
14 13 12 13 12 9 8 7 5 6 6 6 9 9 7 18 11 10 7 7 9 8
Wind_Direction
251 240 238 237 248 237 232 261 275 257 255 258 244 210 219 199 168 286 262 266 254 225
240 246 247 247 236 234 249 258 267 283 275 262 253 217 206 217 214 214 233 241 243 219
292 264 247 244 243 241 240 239 260 282 284 281 261 215 213 220 226 220 232 240 233 223
304 305 294 261 248 237 240 246 250 266 276 280 271 227 218 213 216 225 231 239 235 241
299 303 303 303 300 287 271 256 251 277 290 288 282 257 235 228 221 224 224 158 129 12
293 298 296 294 301 300 286 265 276 262 269 281 277 257 223 211 206 157 172 183 164 148
288 284 288 292 294 299 296 280 276 271 273 270 272 240 211 194 172 175 179 177 183 174
297 293 290 285 290 287 291 280 276 280 277 268 256 225 192 191 187 190 199 198 193 193
281 279 277 278 276 265 274 277 274 278 274 271 249 236 203 196 198 207 209 208 204 205
287 281 274 269 268 274 257 260 256 278 282 261 237 251 245 219 192 197 205 194 172 182
288 284 278 274 267 267 255 247 277 258 256 272 255 233 233 232 179 162 179 190 186 183
285 286 290 277 270 252 264 246 240 224 240 239 227 267 251 238 281 203 206 192 199 164
275 276 280 276 278 255 252 253 227 224 225 235 248 214 245 183 218 230 180 174 181 159
269 264 271 273 272 278 261 271 253 241 232 242 243 240 204 197 200 227 159 161 169 141